Overview Statistics Trail Chart Weather Telemetry Raw packets
 

This is the latest recevied weather packets stored in our database for station/object K4PAD. If no packets are shown the sender has not sent any weather packets the latest 10 day(s).

<< 6 7 8 9 10 11 12 >>
Time Temp. Humidity Pressure Rain* Wind** Luminosity Snow
1788561559 26.67° C 92% 1015.7 hPa 0 mm - 37 W/m² -
1788561258 26.67° C 92% 1015.9 hPa 0 mm - 38 W/m² -
1788560954 26.67° C 91% 1016 hPa 0 mm - 27 W/m² -
1788560649 26.67° C 91% 1016.1 hPa 0 mm - 22 W/m² -
1788560348 27.22° C 90% 1016.2 hPa 0 mm - 21 W/m² -
1788560043 27.22° C 90% 1016 hPa 0 mm - 26 W/m² -
1788559738 27.22° C 89% 1015.9 hPa 0 mm - 30 W/m² -
1788559437 27.22° C 89% 1016 hPa 0 mm - 32 W/m² -
1788559133 27.22° C 89% 1015.7 hPa 0 mm - 38 W/m² -
1788558828 27.22° C 88% 1015.8 hPa 0 mm - 52 W/m² -
1788558524 27.22° C 88% 1015.7 hPa 0 mm - 45 W/m² -
1788558219 27.22° C 88% 1015.8 hPa 0 mm - 44 W/m² -
1788557918 27.22° C 88% 1015.5 hPa 0 mm - 62 W/m² -
1788557613 27.22° C 88% 1015.4 hPa 0 mm - 67 W/m² -
1788557309 27.22° C 87% 1015.7 hPa 0 mm - 70 W/m² -
1788557003 27.22° C 87% 1015.6 hPa 0 mm - 75 W/m² -
1788556698 27.22° C 86% 1015.8 hPa 0 mm - 80 W/m² -
1788556393 27.78° C 86% 1015.9 hPa 0 mm - 78 W/m² -
1788556089 27.78° C 86% 1016 hPa 0 mm - 81 W/m² -
1788555788 27.78° C 86% 1016 hPa 0 mm - 80 W/m² -
1788555484 27.78° C 86% 1015.9 hPa 0 mm - 87 W/m² -
1788555180 27.78° C 86% 1015.9 hPa 0 mm - 92 W/m² -
1788554876 27.78° C 86% 1016 hPa 0 mm - 85 W/m² -
1788554572 27.78° C 85% 1016.1 hPa 0 mm - 57 W/m² -
1788554268 28.33° C 83% 1016.2 hPa 0 mm - 26 W/m² -

* Rain latest hour (hover to see other rain measurements)
** Current wind speed in m/s (hover to see current wind gust speed)